DW5595 Weather Reports


Display with metric or nautical units.
time (UTC)temp
F
wind
direction
speed
MPH
gust
MPH
rain 1hr
in
rain 24hr
in
rain mn
in
humidity
%
barometer
mb
20260510090025 53 245 0.0 0.0 0.00 0.00 0.00 94 1013.4
20260510083013 54 245 0.0 0.0 0.00 0.00 0.00 94 1013.1
20260510081527 54 245 0.0 0.0 0.00 0.00 0.00 95 1013.0
20260510080024 55 245 0.0 0.0 0.00 0.00 0.00 94 1012.9
20260510074525 55 245 0.0 0.0 0.00 0.00 0.00 95 1012.9
20260510073020 55 245 0.0 0.0 0.00 0.00 0.00 95 1012.8
20260510071521 55 245 0.0 0.0 0.00 0.00 0.00 95 1012.6
20260510070014 55 245 0.0 0.0 0.00 0.00 0.00 94 1012.4
20260510064509 56 245 0.0 0.0 0.00 0.00 0.00 94 1012.4
20260510063027 56 245 0.0 0.0 0.00 0.00 0.00 94 1012.5
20260510061526 56 245 0.0 0.0 0.00 0.00 0.00 94 1012.4
20260510060023 56 245 0.0 0.0 0.00 0.00 0.00 94 1012.5
20260510054523 57 251 0.0 0.0 0.00 0.00 0.00 94 1012.6
20260510053018 57 251 0.0 0.0 0.00 0.00 0.00 94 1012.7
20260510051516 57 144 0.0 0.0 0.00 0.00 0.00 93 1012.8
20260510050012 58 144 0.0 0.0 0.00 0.00 0.00 94 1012.8
20260510043010 58 144 0.0 0.0 0.00 0.00 0.00 93 1012.8
20260510041525 58 144 0.0 0.0 0.00 0.00 0.00 93 1012.8
20260510040024 59 144 0.0 0.0 0.00 0.00 0.00 93 1013.0
20260510034519 59 144 0.0 0.0 0.00 0.00 0.00 92 1013.0
20260510033016 60 144 0.0 0.0 0.00 0.00 0.00 91 1013.0
20260510031519 60 144 0.0 0.0 0.00 0.00 0.00 1012.8
20260510030012 61 144 0.0 0.0 0.00 0.00 0.00 90 1012.8
20260510024526 61 144 0.0 0.0 0.00 0.00 0.00 90 1012.7
20260510023022 62 144 0.0 0.0 0.00 0.00 0.00 89 1012.5
20260510021522 62 144 0.0 0.0 0.00 0.00 0.00 88 1012.4
20260510020018 63 144 0.0 0.0 0.00 0.00 0.00 86 1012.3
20260510014519 63 163 0.0 0.0 0.00 0.00 0.00 86 1012.2
20260510013015 64 163 0.0 2.0 0.00 0.00 0.00 85 1012.0
20260510011512 65 343 0.0 1.0 0.00 0.00 0.00 82 1011.8
20260510010026 66 262 0.0 4.0 0.00 0.00 0.00 81 1011.6
20260510004524 66 157 1.0 3.0 0.00 0.00 0.00 80 1011.2
20260510003027 67 134 0.0 3.0 0.00 0.00 0.00 80 1011.0
20260510001529 67 184 0.0 4.0 0.00 0.00 0.00 79 1010.7
20260510000015 68 165 0.0 2.0 0.00 0.00 0.00 78 1010.5
20260509234516 69 151 0.0 1.0 0.00 0.00 0.00 76 1010.5
20260509233022 70 161 0.0 3.0 0.00 0.00 0.00 74 1010.4
20260509230026 70 133 1.0 5.0 0.00 0.00 0.00 72 1010.2
20260509224532 71 150 1.0 5.0 0.00 0.00 0.00 72 1010.2
20260509223025 71 113 3.0 11.0 0.00 0.00 0.00 71 1010.1
20260509221530 71 162 1.0 6.0 0.00 0.00 0.00 70 1009.8
20260509220016 71 170 3.0 7.0 0.00 0.00 0.00 69 1009.6
20260509214513 71 192 1.0 6.0 0.00 0.00 0.00 69 1009.5
20260509213025 72 148 1.0 10.0 0.00 0.00 0.00 70 1009.5
20260509211534 72 113 2.0 8.0 0.00 0.00 0.00 68 1009.5
20260509210023 72 61 1.0 8.0 0.00 0.00 0.00 67 1009.4
20260509204528 72 119 2.0 10.0 0.00 0.00 0.00 67 1009.2
20260509203024 72 240 4.0 10.0 0.00 0.00 0.00 66 1009.3
20260509200015 73 155 5.0 11.0 0.00 0.00 0.00 66 1009.4
20260509193010 72 190 4.0 10.0 0.00 0.00 0.00 65 1009.7
20260509191509 72 165 4.0 13.0 0.00 0.00 0.00 62 1009.8
20260509190007 72 188 2.0 8.0 0.00 0.00 0.00 72 1009.8
20260509184529 70 51 3.0 11.0 0.00 0.00 0.00 69 1010.1
20260509183020 71 148 1.0 10.0 0.00 0.00 0.00 67 1010.3
20260509180019 69 198 3.0 9.0 0.00 0.00 0.00 71 1010.4
20260509174513 68 134 1.0 6.0 0.00 0.00 0.00 72 1010.8
20260509171504 68 294 5.0 10.0 0.00 0.00 0.00 72 1011.1
20260509170023 67 227 1.0 10.0 0.00 0.00 0.00 73 1011.2
20260509164521 68 132 2.0 11.0 0.00 0.00 0.00 72 1011.4
20260509163020 66 157 2.0 9.0 0.00 0.00 0.00 73 1011.4
20260509160012 66 42 3.0 8.0 0.00 0.00 0.00 72 1012.1
20260509154526 67 304 2.0 7.0 0.00 0.00 0.00 73 1012.0
20260509153012 66 189 2.0 6.0 0.00 0.00 0.00 71 1011.9
20260509151526 66 5 3.0 9.0 0.00 0.00 0.00 72 1011.7
20260509150022 66 187 1.0 10.0 0.00 0.00 0.00 73 1011.6
20260509144526 65 143 2.0 7.0 0.00 0.00 0.00 76 1011.8
20260509143018 64 164 3.0 7.0 0.00 0.00 0.00 77 1011.8
20260509141513 63 324 1.0 7.0 0.00 0.00 0.00 80 1011.8
20260509140009 61 93 0.0 8.0 0.00 0.00 0.00 84 1011.7
20260509134506 60 253 1.0 4.0 0.00 0.00 0.00 85 1011.7
20260509133026 58 121 1.0 4.0 0.00 0.00 0.00 88 1012.2
20260509131522 57 126 1.0 5.0 0.00 0.00 0.00 90 1012.1
20260509130035 55 138 0.0 0.0 0.00 0.00 0.00 95 1012.4
20260509123016 52 9 0.0 0.0 0.00 0.00 0.00 96 1012.9
20260509121510 51 9 0.0 1.0 0.00 0.00 0.00 96 1013.0
20260509120032 50 14 0.0 0.0 0.00 0.00 0.00 96 1012.7
20260509114526 49 192 0.0 0.0 0.00 0.00 0.00 96 1012.7
20260509113026 48 290 0.0 0.0 0.00 0.00 0.00 96 1012.5
20260509111520 47 290 0.0 0.0 0.00 0.00 0.00 95 1012.5
20260509110021 46 141 0.0 2.0 0.00 0.00 0.00 95 1012.6
20260509104526 47 180 0.0 0.0 0.00 0.00 0.00 95 1012.8
20260509103018 46 180 0.0 0.0 0.00 0.00 0.00 95 1012.6
20260509101512 46 180 0.0 0.0 0.00 0.00 0.00 95 1012.3
20260509100010 46 180 0.0 0.0 0.00 0.00 0.00 95 1012.1
20260509094524 46 180 0.0 0.0 0.00 0.00 0.00 94 1011.9
20260509093027 46 180 0.0 0.0 0.00 0.00 0.00 94 1012.0
20260509091523 47 180 0.0 0.0 0.00 0.00 0.00 94 1012.1